Location: Jackson Park
(37.2862°N, 79.9123°W)
Time: 13:32:28
(UTC+00:00)

Vanguard 2 - Pass Details

Date: 18 May 2026
Orbit: 553 x 2894 km, 32.9° (Epoch: 6 June)

Event Time Altitude Azimuth Distance (km) Brightness Sun altitude
Rises 06:37:05 0° 244° (WSW) 6,093 - -30.0°
Reaches altitude 10° 06:40:48 10° 242° (WSW) 5,293 - -29.7°
Exits shadow 06:48:38 37° 232° (SW) 3,819 10.5 -29.1°
Maximum altitude 06:57:22 68° 164° (SSE) 3,051 10.2 -28.3°
Drops below altitude 10° 07:13:44 10° 86° (E) 5,243 12.2 -26.7°
Sets 07:17:23 0° 84° (E) 6,035 12.6 -26.4°
